Regional Weather Roundup
Issued by NWS

Home | Current Version | Previous Version | Text Only | Print | Product List | Glossary On
Versions: 1 2 3 4 5 6 7 8 9 10 11 12 13 14 15 16 17 18 19 20 21 22 23 24 25 26 27 28 29 30 31 32 33 34 35 36 37 38 39 40 41 42 43 44 45 46 47 48 49 50
547
ASUS44 KFWD 011815
RWRTX
NORTH TEXAS HOURLY WEATHER ROUNDUP
NATIONAL WEATHER SERVICE FORT WORTH TX
100 PM CDT SUN MAY 01 2016

NOTE: "FAIR" INDICATES FEW OR NO CLOUDS BELOW 12,000 FEET WITH NO
SIGNIFICANT WEATHER AND/OR OBSTRUCTIONS TO VISIBILITY.

TXZ118-119-011900-
DALLAS/FORT WORTH METROPLEX

CITY           SKY/WX    TMP DP  RH WIND       PRES   REMARKS
DFW AIRPORT    SUNNY     69  48  47 N13G22    30.02F
6HR MIN TEMP:  59; 6HR MAX TEMP:  70;

DALLAS LOVE    MOSUNNY   72  48  42 N13G21    30.02F
6HR MIN TEMP:  60; 6HR MAX TEMP:  72;

FTW MEACHAM    SUNNY     70  46  42 N17       30.03F
6HR MIN TEMP:  57; 6HR MAX TEMP:  70;

DAL-EXECUTIVE  SUNNY     71  51  49 N9G18     30.02S
6HR MIN TEMP:  58; 6HR MAX TEMP:  71;

FTW-ALLIANCE   SUNNY     68  46  45 N15G21    30.04F
6HR MIN TEMP:  55; 6HR MAX TEMP:  68;

FTW-NAS-JRB    SUNNY     69  46  43 NE13      30.05F
6HR MIN TEMP:  58; 6HR MAX TEMP:  69;

FTW-SPINKS     SUNNY     68  50  52 N10G18    30.05F
ARLINGTON      SUNNY     72  50  45 N14       30.03S
6HR MIN TEMP:  62; 6HR MAX TEMP:  72;

GRAND PRAIRIE  SUNNY     70  48  46 N15       30.04
ADDISON        SUNNY     70  52  52 N10G23    30.04S
MESQUITE       SUNNY     68  50  52 N13G22    30.03S
LANCASTER      SUNNY     70  47  42 NE12      30.02F
6HR MIN TEMP:  59; 6HR MAX TEMP:  71;

$$

TXZ091>094-102>105-117-120-121-131>134-011900-
NORTH CENTRAL TEXAS

CITY           SKY/WX    TMP DP  RH WIND       PRES   REMARKS
SHRMAN/DENISON SUNNY     63  44  49 N9        30.07F
6HR MIN TEMP:  51; 6HR MAX TEMP:  63;

GAINESVILLE    SUNNY     64  44  48 N6        30.08F
6HR MIN TEMP:  51; 6HR MAX TEMP:  64;

BOWIE          SUNNY     64  43  46 N9G18     30.07F
6HR MIN TEMP:  50; 6HR MAX TEMP:  64;

BRIDGEPORT     SUNNY     65  46  49 NW7       30.09S
6HR MIN TEMP:  53; 6HR MAX TEMP:  66;

DECATUR        SUNNY     66  42  41 NW7       30.07F
6HR MIN TEMP:  53; 6HR MAX TEMP:  66;

DENTON         SUNNY     67  48  50 N9G22     30.05F
6HR MIN TEMP:  54; 6HR MAX TEMP:  67; 6HR PCP: TRACE;

MCKINNEY       SUNNY     70  51  51 N12       30.03F
6HR MIN TEMP:  55; 6HR MAX TEMP:  70;

GREENVILLE     SUNNY     70  50  49 N10G18    30.01F
ROCKWALL       SUNNY     69  53  55 N13       30.02S
6HR MIN TEMP:  56; 6HR MAX TEMP:  69;

TERRELL        SUNNY     72  53  51 N10       30.01S
6HR MIN TEMP:  59; 6HR MAX TEMP:  72;

WAXAHACHIE     SUNNY     70  53  55 N10G18    30.02F
6HR MIN TEMP:  59; 6HR MAX TEMP:  70;

CLEBURNE       SUNNY     68  52  56 N14       30.05S
GRANBURY       SUNNY     69  48  48 N10       30.06F
6HR MIN TEMP:  57; 6HR MAX TEMP:  69;

$$

TXZ083>090-098>101-113>116-127>130-139>142-154-155-011900-
WESTERN NORTH TEXAS

CITY           SKY/WX    TMP DP  RH WIND       PRES   REMARKS
WICHITA FALLS  SUNNY     64  43  46 N12       30.09F
6HR MIN TEMP:  48; 6HR MAX TEMP:  64;

WF-KICKAPOO    SUNNY     64  41  43 N10G18    30.10F
6HR MIN TEMP:  52; 6HR MAX TEMP:  64;

VERNON         SUNNY     64  36  35 N10G22    30.13R
6HR MIN TEMP:  47; 6HR MAX TEMP:  65;

ABILENE        PTSUNNY   64  42  44 N13       30.08F
6HR MIN TEMP:  50; 6HR MAX TEMP:  65;

ABILENE-DYESS  CLOUDY    61  41  47 N13G22    30.07S
6HR MIN TEMP:  51; 6HR MAX TEMP:  62;

BRECKENRIDGE   MOSUNNY   66  38  35 N15       30.06F
6HR MIN TEMP:  53; 6HR MAX TEMP:  67;

GRAHAM         SUNNY     65  44  46 N10       30.08F
6HR MIN TEMP:  51; 6HR MAX TEMP:  66;

MINERAL WELLS  SUNNY     67  44  43 N13       30.05F
6HR MIN TEMP:  54; 6HR MAX TEMP:  68;

STEPHENVILLE   SUNNY     67  45  44 N15G23    30.06F
6HR MIN TEMP:  55; 6HR MAX TEMP:  67;

COMANCHE       PTSUNNY   65  48  53 NE14      30.04F
6HR MIN TEMP:  53; 6HR MAX TEMP:  66;

BROWNWOOD      MOSUNNY   66  46  48 NE14G21   30.03F
COLEMAN        PTSUNNY   66  45  45 NE14G25   30.05S
6HR MIN TEMP:  54; 6HR MAX TEMP:  66;

$$

TXZ143>147-156>162-174-175-011900-
CENTRAL TEXAS

CITY           SKY/WX    TMP DP  RH WIND       PRES   REMARKS
WACO           MOSUNNY   73  53  49 NE17      29.98F
6HR MIN TEMP:  59; 6HR MAX TEMP:  74;

WACO-TSTC      MOSUNNY   72  54  53 NE14G22   29.98F
WACO-MCGREGOR  PTSUNNY   73  55  53 NE14G22   29.99F
6HR MIN TEMP:  59; 6HR MAX TEMP:  73;

HILLSBORO      SUNNY     70  54  56 N10G22    30.01F
6HR MIN TEMP:  58; 6HR MAX TEMP:  70;

CORSICANA      SUNNY     74  53  48 N14G21    29.99F
6HR MIN TEMP:  62; 6HR MAX TEMP:  74;

MEXIA          PTSUNNY   71  55  55 N12G21    29.97S
6HR MIN TEMP:  61; 6HR MAX TEMP:  72;

HEARNE         CLOUDY    76  61  60 N14       29.94F
6HR MIN TEMP:  64; 6HR MAX TEMP:  77;

CAMERON        CLOUDY    75  61  60 N15G21    29.94F
6HR MIN TEMP:  63; 6HR MAX TEMP:  76;

TEMPLE         PTSUNNY   72  56  57 N16G25    29.98F
6HR MIN TEMP:  62; 6HR MAX TEMP:  73;

KILLEEN        CLOUDY    70  55  59 NE14      29.97F
6HR MIN TEMP:  58; 6HR MAX TEMP:  70;

KILLEEN-SKYLRK MOSUNNY   71  56  58 N15G23    29.98F
6HR MIN TEMP:  61; 6HR MAX TEMP:  71;

FORT HOOD      MOSUNNY   71  55  57 NE18      29.96F
6HR MIN TEMP:  59; 6HR MAX TEMP:  71;

GATESVILLE     PTSUNNY   70  52  52 MISG      30.02F
HAMILTON       PTSUNNY   69  49  50 NE15G23   30.02F
6HR MIN TEMP:  56; 6HR MAX TEMP:  70;

LAMPASAS       CLOUDY    71  59  66 NE12G20   29.99F
6HR MIN TEMP:  58; 6HR MAX TEMP:  71;

$$

TXZ095>097-106>112-122>126-135>138-148>153-164>167-011900-
EAST TEXAS

CITY           SKY/WX    TMP DP  RH WIND       PRES   REMARKS
PARIS          SUNNY     72  50  46 N12G18    30.02S
6HR MIN TEMP:  55; 6HR MAX TEMP:  72;

SULPHUR SPRNGS SUNNY     71  56  58 N14       30.01F
6HR MIN TEMP:  60; 6HR MAX TEMP:  71;

MOUNT PLEASANT SUNNY     75  50  42 N9        29.99F
6HR MIN TEMP:  60; 6HR MAX TEMP:  75;

MINEOLA        SUNNY     73  54  49 N7        29.99F
TYLER          SUNNY     77  56  48 N13       29.95F
6HR MIN TEMP:  62; 6HR MAX TEMP:  78;

LONGVIEW       MOSUNNY   76  64  66 N8        29.93F
6HR MIN TEMP:  63; 6HR MAX TEMP:  77;

MARSHALL       MOSUNNY   76  63  64 NW10      29.96S
6HR MIN TEMP:  63; 6HR MAX TEMP:  76;

ATHENS         SUNNY     73  54  49 N12G17    29.95F
PALESTINE      SUNNY     78  63  59 N13G18    29.95S
JACKSONVILLE   MOSUNNY   75  65  70 N10       29.95F
HENDERSON      PTSUNNY   76  64  66 NE12      29.95F
6HR MIN TEMP:  63; 6HR MAX TEMP:  76;

CENTER         CLOUDY    80  71  74 N5        29.90F
6HR MIN TEMP:  67; 6HR MAX TEMP:  82;

NACOGDOCHES    CLOUDY    79  68  69 N6        29.90F
6HR MIN TEMP:  64; 6HR MAX TEMP:  81;

LUFKIN         CLOUDY    81  68  64 NE7       29.88F
6HR MIN TEMP:  67; 6HR MAX TEMP:  82;

$$

SUPPLEMENTAL OBSERVATIONS (CENTRAL)

CITY           SKY/WX    TMP DP  RH WIND       PRES   REMARKS
LAKE TEXOMA      N/A     63  43  48 NW12        N/A
CADDO GRASSLND   N/A     70  50  49 N5          N/A
PAT MAYSE LAKE   N/A     70  50  49 NW10        N/A
GREENVILLE       N/A     70  52  52 VRB15       N/A
CEDAR HILL       N/A     70  50  49 NE9G17      N/A
ATHENS           N/A     77  55  47 N2G12       N/A
LAKE LIMESTONE   N/A     75  59  57 VRB15       N/A
MCGREGOR         N/A     72  54  53 N12G23      N/A
$C1F1C2F2C3F3C4F4C5F5C6F6C7F7C8F8C9!



USA.gov is the U.S. government's official web portal to all federal, state and local government web resources and services.